logo dgac
Martes 21 de Mayo del 2019
Buscar por aerodromo o helipuerto
Ingrese nombre de aeródromo, localidad o designador OACI:

Aeródromo: Capitán Fuentes Martinez (PUB) (SCFM)

Ubicación: Porvenir, XII Región, Chile (53º 15' 13'' S, 70º 19' 09'' W) Ver ubicación en el mapa

Pistas

Orientación Dimensión Pendiente Superficie Resistencia APCH THR RWY PAPI
03/21 960 x 30 0,40 ASPH 20.000 kg No
09/27 2500 x 30 0,30 ASPH PCN 12 F/Y/C/U No
Horas de operación HJ
Elevación 32 m / 104 ft
Otra Información Adm : DGAC.
Uso : PUB
Ubicado 5 km NE Porvenir
TEL/FAX (61) 2745500/2745501 CEL (09) 91581768

Cámara de Aeródromo www.dgac.gob.cl

Otra información ver AIP-Chile Volumen I AD 3.9-15.7-P

CCCM/FCCV Descargar
andera de Chile
Mapa de Capitán Fuentes Martinez (PUB) (SCFM)

Último METAR

METAR SCFM 202000Z 23030KT 9999 FEW030 09/02 Q1012

Último TAF

No hay tafs registrados para este aeródromo

Últimas fotos cámaras

Imagen aerodromo Capitán Fuentes Martinez (PUB) (SCFM) Este tomada el 21-05-2019 03:37:21 Imagen aerodromo Capitán Fuentes Martinez (PUB) (SCFM) Oeste tomada el 21-05-2019 03:36:33

Último NOTAM

No hay notams registrados para este aeródromo

LLegadas a Capitán Fuentes Martinez (PUB) (SCFM)

En vuelo

Vuelo Procedencia Hora Despegue Local Hora Arribo Local

Salidas de Capitán Fuentes Martinez (PUB) (SCFM)

En vuelo

Vuelo Hacia Hora Despegue Local Hora Arribo Local